PROGRESS-MS 12

Last updated on Sat Nov 30 2019 00:02:12 GMT+0000 (Coordinated Universal Time)

1 44455U 19047A 19333.51783652 .00005209 00000-0 10000-3 0 9999 2 44455 51.6557 261.6161 0011642 29.1270 133.6262 15.49733374 18762
UTC large
Height (km)
Speed (km/s)
/
Latitude / Longitude
Inclination (degrees)
Orbital Period (minutes)
Azimuth
Elevation
Range (km)
Doppler Factor

Next 0 passes for location: London (51.5072 / 0.1276)

Sorry there are no passes over London.